Location: Quaker Farms
(41.4276°N, 73.1557°W)
Time: 12:07:18
(UTC+00:00)

S-56A Canister/Altair - All Passes

Search period start: 14 June 2021 00:00
Search period end: 24 June 2021 00:00
Orbit: 632 x 2500 km, 38.9° (Epoch: 14 June)

Date Brightness Start Highest point End Pass type
(mag) Time Alt. Az. Time Alt. Az. Time Alt. Az.
14 Jun - 09:34:39 10° S 09:37:29 16° SE 09:40:35 10° ESE daylight
14 Jun - 11:35:30 10° WSW 11:40:15 55° SSE 11:46:48 10° E daylight
14 Jun - 13:38:16 10° W 13:44:04 72° S 13:52:53 10° ESE daylight
14 Jun - 15:41:29 10° W 15:48:26 48° SSW 15:58:49 10° SE daylight
14 Jun - 17:46:21 10° W 17:53:04 22° SW 18:01:37 10° S daylight
15 Jun - 09:03:04 10° SSE 09:05:03 13° SE 09:07:08 10° ESE daylight
15 Jun - 11:03:13 10° SW 11:07:44 48° SSE 11:13:39 10° E daylight
15 Jun - 13:05:56 10° W 13:11:22 72° S 13:19:28 10° E daylight
15 Jun - 15:09:03 10° W 15:15:34 50° SSW 15:25:23 10° SE daylight
15 Jun - 17:13:31 10° W 17:20:05 24° SSW 17:28:39 10° SSE daylight
16 Jun - 10:30:58 10° SW 10:35:15 42° SSE 10:40:35 10° E daylight
16 Jun - 12:33:36 10° W 12:38:42 71° S 12:46:08 10° E daylight
16 Jun - 14:36:39 10° W 14:42:45 52° SSW 14:51:57 10° SE daylight
16 Jun - 16:40:49 10° W 16:47:09 25° SSW 16:55:36 10° SSE daylight
17 Jun - 09:58:42 10° SW 10:02:48 36° SSE 10:07:36 10° E daylight
17 Jun - 12:01:16 10° W 12:06:07 70° S 12:12:53 10° E daylight
17 Jun - 14:04:17 10° W 14:10:01 54° SSW 14:18:34 10° ESE daylight
17 Jun - 16:08:11 10° W 16:14:15 27° SSW 16:22:31 10° SSE daylight
18 Jun - 09:26:26 10° SW 09:30:21 31° SSE 09:34:42 10° E daylight
18 Jun - 11:28:55 10° WSW 11:33:33 67° S 11:39:45 10° E daylight
18 Jun - 13:31:56 10° W 13:37:19 56° SSW 13:45:15 10° ESE daylight
18 Jun - 15:35:37 10° W 15:41:25 28° SSW 15:49:24 10° SSE daylight
19 Jun - 08:54:10 10° SSW 08:57:55 27° SSE 09:01:51 10° E daylight
19 Jun - 10:56:33 10° WSW 11:01:02 64° S 11:06:43 10° E daylight
19 Jun - 12:59:35 10° W 13:04:41 58° SSW 13:11:59 10° ESE daylight
19 Jun - 15:03:07 10° W 15:08:38 29° SSW 15:16:17 10° SSE daylight
20 Jun - 08:21:52 10° SSW 08:25:29 23° SSE 08:29:04 10° E visible
20 Jun - 10:24:10 10° WSW 10:28:32 60° S 10:33:46 10° E daylight
20 Jun - 12:27:14 10° W 12:32:05 60° S 12:38:49 10° ESE daylight
20 Jun - 14:30:39 10° W 14:35:54 31° SSW 14:43:11 10° SSE daylight
20 Jun - 16:39:25 10° SW 16:40:00 10° SW 16:40:36 10° SSW daylight
21 Jun - 07:49:35 10° SSW 07:53:01 20° SSE 07:56:18 10° ESE visible
21 Jun - 09:51:44 10° WSW 09:56:04 56° SSE 10:00:56 10° E daylight
21 Jun - 11:54:53 10° W 11:59:31 62° S 12:05:43 10° ESE daylight
21 Jun - 13:58:13 10° W 14:03:13 32° SSW 14:10:06 10° SE daylight
21 Jun - 16:05:11 10° SW 16:07:13 11° SW 16:09:24 10° SSW daylight
22 Jun - 07:17:17 10° SSW 07:20:33 18° SSE 07:23:34 10° ESE visible
22 Jun - 09:19:16 10° WSW 09:23:36 51° SSE 09:28:11 10° E daylight
22 Jun - 11:22:29 10° W 11:26:59 63° S 11:32:42 10° ESE daylight
22 Jun - 13:25:49 10° W 13:30:34 34° SSW 13:37:04 10° SE daylight
22 Jun - 15:31:55 10° SW 15:34:26 12° SSW 15:37:17 10° SSW daylight
23 Jun - 06:45:00 10° S 06:48:03 16° SSE 06:50:49 10° ESE visible
23 Jun - 08:46:45 10° WSW 08:51:09 47° SSE 08:55:30 10° E visible
23 Jun - 10:50:05 10° W 10:54:29 64° S 10:59:47 10° ESE daylight
23 Jun - 12:53:25 10° W 12:57:59 36° SSW 13:04:04 10° SE daylight
23 Jun - 14:58:55 10° WSW 15:01:43 13° SSW 15:04:57 10° S daylight
